CAPE
2977 3542 2521 2462 2780 2464 2552 2671 2836 2310 2277 2614 2253 2296 2180 2210 2313 2149 2795 3037 2696 2991 3400 3364 4032 3737 3684 3734 4154 4395 4329 4187 3846 4611 3947 4294 2933 3165 3101 2616 1748 1869
2582 3522 3320 2945 2853 3506 2316 2587 2785 2353 2265 2363 2469 2380 2322 1906 2668 2336 2527 2668 2840 2998 3410 3409 3323 3205 3037 3309 3780 3172 3898 4600 3602 3972 3770 2866 2759 2650 2792 2812 2260 1314
2632 3146 3101 3110 3135 3144 2875 2485 2592 2416 2655 2317 2326 2164 2641 2087 2412 2061 2289 2340 2689 2844 2963 3100 3007 3368 3220 3122 2784 3694 3853 4196 3895 3427 2994 3534 2923 3558 3190 2552 2277 2284
2563 2767 2774 2791 2739 2353 2681 2357 2750 2276 2382 2479 2731 2447 2438 2207 2340 2964 2639 3113 2106 2555 2806 3115 2991 3106 3262 3402 2814 3035 3553 3155 3259 4137 4277 4330 4092 3315 3038 2940 2788 2655
2312 2387 2398 2300 2222 1885 2206 2208 2435 2114 2064 2388 2609 2646 2368 2150 2228 2288 2904 2787 1933 3055 2688 2897 2960 2677 2802 2864 3099 3135 3440 3258 3291 4296 3397 3604 3537 3523 2742 2496 2684 2576
2820 2140 2134 2021 1755 1989 2033 2018 1945 1854 1837 1941 1921 2322 2282 2442 2162 1734 2779 2357 2666 2704 2257 2919 2930 2477 2782 2926 2913 2919 3246 3216 2956 3270 2948 2865 3175 3121 2938 3196 2553 3134
2843 2480 2259 1836 1792 2187 1909 1756 1796 1845 1627 1552 1620 2032 1986 2279 1914 1785 2383 1902 2065 1991 2035 2356 2371 2442 2660 2945 2761 2692 2849 3274 3686 3545 3144 3211 3080 2752 2853 3353 2697 3047
2443 2501 2597 2032 1794 1933 1768 1268 1485 1420 1540 1540 1303 1560 2000 2398 2350 2109 1909 1892 1831 1544 1852 1821 2214 2264 2551 2614 2463 2821 2793 3029 3353 3902 4258 4274 3732 3838 3933 3416 3360 3539
2199 2358 2414 2276 1824 1457 1828 1676 1413 1851 1266 1793 1306 1558 1548 2522 2346 2258 1992 1782 1719 1588 1485 2349 2177 2459 2520 2763 2657 2996 2819 2704 2691 3305 4071 4249 4055 3386 2910 3098 3492 3502
1787 2068 2227 2270 1931 1710 1736 1573 1485 1826 2007 1910 1302 1741 1413 2386 2143 1910 1856 2084 1803 1922 2532 2958 3198 2985 3113 2876 2848 3120 3039 2820 2745 3493 3549 3756 3363 3214 3205 2917 2770 2729
1698 1730 1921 2103 1889 1848 1760 1604 1496 1579 1591 1756 1418 1623 1767 1974 1616 2165 2418 2206 2259 3087 3234 3215 3117 3456 3172 2893 3145 3612 3570 3556 3300 3158 2945 3119 3740 3523 4205 3358 3417 3286
1573 1660 1704 1795 1748 1723 1679 1598 1660 1570 1544 1644 1546 1370 1636 1882 1785 1543 2990 2267 2097 2967 3248 3418 3330 3544 3396 2989 2774 3057 3488 3178 2956 3455 3303 3175 3249 3074 3401 3300 3085 3116
1281 1437 1478 1432 1419 1418 1496 1568 1728 1681 1548 1618 1505 1396 1216 1548 1732 1616 2517 2581 2424 2928 3135 3353 3337 3423 3305 3007 2898 2755 2756 2863 2939 2828 2822 2966 2849 2712 2704 2553 2326 2396
1080 1126 1095 1040 1165 1186 1178 1348 1316 1454 1489 1582 1603 1596 1464 1412 1257 1885 1936 2505 2434 2503 2814 3414 3377 3263 3323 3383 3018 2656 3269 2955 2636 2868 2817 2836 2764 2424 2267 2109 2077 2050
1660 1300 677 615 972 786 754 955 1190 1416 1422 1539 1640 1595 1604 1457 1312 1427 1987 2364 2703 2452 2416 2802 3391 3487 3967 3933 3815 3543 3605 3079 3129 2857 2993 2923 2713 2549 2347 2369 2322 2091
1773 1753 1600 1501 2218 916 520 339 1027 1096 1377 1531 1513 1606 1634 1506 1271 1210 1346 2101 2549 2502 2459 2410 2942 3448 3906 3899 4109 4149 3599 3364 3310 2979 2949 2800 2809 2869 2658 2119 1814 1950
1560 1369 1278 1118 1364 1563 2312 1138 781 1176 1273 1347 1446 1568 1521 1453 1424 1271 1176 1216 1762 2439 2428 2248 2227 2666 2723 2750 2972 3520 3878 3590 3465 3296 2863 2581 2612 2524 2240 2549 2666 2222
1404 1229 1047 904 898 1646 1996 2280 3398 3050 2517 2420 1639 1404 1383 1214 1368 1190 1052 1098 1391 2117 2196 2066 2001 1964 2082 2235 2282 2599 3192 3429 3245 3316 3266 2726 2783 2489 2339 2354 2201 1718
1614 1356 1119 900 820 1133 1871 2102 2197 2796 2765 2632 2238 1750 1093 923 973 972 970 986 1135 1447 1933 1923 1818 1712 1623 1506 1497 1696 2350 2786 2529 2210 1880 1478 1209 1197 1660 2274 2218 2230
1709 1423 1197 1004 954 937 1562 1781 1876 2169 2107 1965 1934 1626 868 612 663 837 870 915 849 1154 1508 1702 1711 1520 1284 1184 1323 1458 1714 1970 2108 1906 1691 1537 2347 2504 2835 2728 2408 1923
2253 1842 1661 1243 1130 982 1057 1620 1769 1873 1871 1896 1889 1687 1609 1121 778 847 767 778 896 863 1153 1378 1520 1440 1124 1042 1072 1081 1219 1425 2060 1858 1634 2127 2267 1940 2308 2630 2138 1636
2476 2415 2230 2023 1569 1473 1305 1590 1801 1859 1895 1898 1868 1748 1672 1466 1014 975 782 715 741 838 869 781 754 758 891 980 1027 1070 1170 1536 1974 2091 2311 1764 1586 1514 1748 1921 1769 1610
1939 2269 2410 2389 2164 1957 1696 1787 1957 1908 2328 2019 1925 1993 2093 1971 1541 1055 799 729 672 677 815 891 789 747 840 919 956 1046 1780 2526 2806 2569 2295 2032 1637 1434 1378 1322 1350 1343
1508 1997 2363 2343 2277 2044 1862 1800 2147 2044 2064 2074 2068 2101 2304 2125 1701 1442 1210 1008 849 748 702 767 801 1014 1082 1053 1026 994 1353 1863 2264 2195 2170 2052 1850 1699 1565 1413 1321 1321
1254 1674 2126 2195 2145 2056 1944 1858 1965 1993 2035 2148 2169 1833 1621 1602 1629 1329 1337 1288 1211 1049 810 702 655 765 1042 1259 1339 1325 1508 2141 2030 1842 1808 1824 1764 1631 1520 1511 1437 1366
1305 1370 1698 1938 2098 2109 1963 1775 1671 1640 1839 1837 1928 1752 1550 1488 1655 1580 1485 1435 1430 1366 1128 920 802 764 790 923 1033 1057 1180 1679 1843 1691 1535 1500 1507 1458 1399 1229 1104 1090
Wind_Speed
2 3 2 2 2 3 3 4 5 5 5 5 6 8 8 9 9 8 8 9 8 9 9 9 10 9 8 8 8 6 5 4 3 3 3 2 2 3 4 4 3 3
2 2 2 3 3 4 3 3 4 4 5 5 5 5 7 7 8 6 6 7 8 8 7 7 8 7 7 6 5 4 4 3 2 2 2 3 3 1 1 2 3 5
1 1 1 2 2 3 2 3 5 4 5 5 4 4 5 6 5 5 4 5 5 4 5 5 6 6 6 4 3 2 1 0 1 1 3 4 4 3 3 3 2 3
2 1 0 1 3 2 4 3 6 4 5 5 4 3 3 3 3 2 1 2 2 2 2 3 4 5 4 3 2 1 2 2 2 4 5 5 4 4 3 3 4 5
1 2 1 1 2 2 4 3 5 4 5 6 5 5 4 5 3 4 4 3 2 4 2 2 2 2 2 4 3 4 4 3 3 6 7 6 4 5 5 3 2 2
3 3 2 3 4 3 3 3 3 3 3 4 4 4 5 5 5 4 5 5 4 5 3 4 4 4 3 5 6 5 5 5 5 7 8 8 5 5 5 6 7 5
4 5 3 4 3 3 2 3 4 3 3 4 5 5 6 6 6 5 6 5 5 6 5 6 5 6 6 8 8 7 5 7 8 10 10 8 8 5 4 5 6 5
5 5 5 7 4 4 5 4 3 4 2 6 5 6 8 7 7 6 6 5 6 5 6 7 8 7 8 9 9 8 6 7 9 10 10 8 9 7 5 5 7 7
8 7 6 7 7 5 4 5 3 4 4 7 7 8 7 7 5 6 7 7 6 6 5 8 8 8 9 10 10 10 9 7 8 10 9 8 7 7 6 6 6 6
10 10 8 7 7 7 4 7 7 7 7 8 7 9 8 8 7 7 9 8 8 8 10 12 12 11 11 11 11 10 10 8 7 10 10 9 8 8 8 8 7 6
10 11 10 9 8 9 6 8 9 10 9 8 10 11 10 11 10 10 11 10 10 11 13 13 13 12 11 10 10 11 11 10 9 10 10 10 10 9 10 10 9 9
11 12 11 11 10 11 9 10 11 11 11 10 11 10 13 12 11 10 12 11 11 13 13 13 13 13 11 10 11 12 13 12 11 11 12 11 10 9 10 10 10 10
12 12 13 12 11 11 12 13 13 12 13 11 13 14 14 14 13 12 13 12 12 13 13 13 12 12 12 11 11 14 15 14 14 15 14 13 13 13 13 13 11 10
15 14 13 13 12 11 12 14 15 14 14 13 16 17 16 15 14 16 14 14 13 14 13 14 13 12 13 13 13 14 15 16 16 15 15 15 15 13 13 13 12 11
21 18 16 15 14 12 11 14 15 14 14 15 16 18 18 17 17 18 17 16 16 15 15 15 15 14 16 16 16 15 18 17 17 17 16 16 15 15 16 16 14 13
24 23 21 19 18 15 12 16 17 15 15 15 17 18 19 19 19 19 20 18 18 17 16 16 18 19 20 19 17 17 18 17 17 17 18 19 19 17 16 16 14 14
25 23 23 24 23 26 25 20 20 18 18 17 18 19 20 20 20 20 19 19 19 20 18 21 24 23 23 22 23 21 19 19 20 20 20 20 19 19 17 16 16 16
24 22 23 23 25 26 26 25 25 26 25 24 23 20 20 21 21 21 20 19 18 19 23 27 26 27 26 26 26 25 22 21 21 22 21 21 20 19 18 18 19 20
22 21 22 22 25 25 25 27 27 28 29 32 32 29 30 31 33 33 30 27 28 28 27 27 26 27 27 28 27 27 26 23 24 25 26 25 23 23 24 26 27 27
23 24 23 25 27 25 25 28 29 30 31 32 31 29 29 31 33 33 30 30 29 29 29 28 28 27 26 26 27 28 27 26 26 27 28 29 31 29 29 28 29 30
23 25 24 25 26 25 25 27 29 31 33 33 32 31 32 32 31 30 30 31 30 28 28 28 27 28 25 26 27 28 28 28 29 30 33 33 32 33 33 32 33 35
23 24 24 24 24 23 22 23 28 33 35 33 32 32 32 33 33 32 31 31 30 30 29 29 27 28 27 26 27 28 28 29 31 33 36 35 35 35 35 35 35 36
25 24 22 23 22 22 20 21 26 31 34 31 33 32 33 33 34 35 34 34 33 32 33 31 28 28 28 27 27 29 31 32 34 37 37 38 37 37 37 37 36 36
23 17 18 19 18 20 22 23 25 28 30 30 32 32 33 32 35 38 38 36 35 34 33 32 30 30 30 29 31 32 34 35 38 39 40 40 40 40 40 39 41 45
22 16 15 16 18 23 25 26 27 28 28 28 25 27 31 31 32 36 37 37 37 37 39 36 32 31 33 32 36 37 37 37 38 39 41 42 43 43 43 42 41 42
28 24 21 20 22 25 28 29 28 29 28 26 25 28 29 29 28 31 35 35 37 37 36 35 35 34 34 38 40 42 40 39 38 40 40 41 42 44 45 44 43 41
Wind_Direction
141 182 228 212 174 143 125 108 111 99 95 89 83 85 87 93 100 104 104 118 118 126 131 132 134 139 135 134 138 146 151 115 115 86 102 73 100 92 88 45 63 77
84 176 193 200 178 181 169 156 136 118 105 112 93 91 96 93 101 92 102 110 114 124 132 132 140 142 142 150 149 156 139 138 119 101 21 4 20 71 86 60 14 13
118 174 248 197 206 205 229 179 172 140 136 117 119 111 111 101 105 91 100 89 105 123 136 147 145 140 141 156 166 188 134 143 31 53 336 341 344 348 11 7 9 30
138 129 179 228 225 234 221 205 186 164 158 166 154 138 140 137 163 185 112 78 126 166 148 167 152 149 151 189 223 221 262 302 316 290 310 299 316 340 346 357 8 321
118 135 185 193 240 257 229 224 197 199 182 188 194 189 182 187 194 202 204 207 196 214 217 256 228 203 198 220 252 257 256 296 296 294 301 312 325 323 331 328 321 340
199 190 210 198 231 259 252 257 224 238 201 225 212 214 205 200 215 212 209 216 216 239 247 245 245 256 265 255 262 274 271 300 301 304 307 314 315 307 303 311 299 285
233 227 226 225 249 232 254 273 259 254 225 253 228 250 231 238 236 233 222 226 219 235 266 252 260 250 268 264 275 277 283 277 278 297 306 312 309 305 290 283 274 279
254 252 227 232 273 249 224 263 243 265 259 260 255 255 249 251 234 242 238 248 229 233 242 270 275 275 273 279 282 280 279 284 290 284 294 300 298 296 295 290 287 284
249 255 246 237 263 254 242 263 271 255 265 266 268 265 258 269 256 243 264 267 259 259 253 256 274 273 269 280 286 288 292 286 285 296 298 300 299 303 296 287 280 287
248 248 255 246 252 256 256 253 266 257 254 250 271 276 280 275 284 264 268 268 267 272 264 265 266 264 264 268 285 287 287 289 278 281 290 290 294 295 294 288 295 291
252 255 252 246 246 246 256 253 250 256 258 247 256 254 267 276 285 268 272 275 273 269 269 272 274 270 269 269 274 278 281 278 276 280 281 281 283 286 289 283 284 292
246 245 255 254 249 243 256 250 260 251 258 253 254 266 257 266 278 268 272 279 271 271 268 272 276 279 280 279 277 283 283 279 278 279 277 279 279 280 284 288 291 293
245 240 238 246 249 242 251 248 259 261 258 258 254 262 259 258 265 268 271 279 273 271 275 273 275 282 283 282 277 278 285 284 277 273 270 273 271 270 267 267 271 280
242 245 239 238 243 237 242 258 256 257 257 259 255 260 261 260 255 263 268 269 271 267 268 270 272 270 270 272 274 272 275 281 279 277 275 272 272 273 273 271 270 267
238 241 245 243 246 253 242 252 269 268 265 266 264 265 266 263 256 258 266 262 262 266 262 267 271 268 263 264 266 266 269 270 273 274 275 277 279 277 276 275 277 281
238 235 235 239 243 252 268 262 264 267 272 270 271 271 267 267 265 261 262 265 265 269 267 269 267 262 254 257 260 265 267 265 268 272 272 272 273 273 275 280 281 280
241 242 241 242 242 238 235 240 258 274 267 263 264 267 267 269 274 271 266 265 271 274 277 267 257 253 244 252 255 253 261 273 270 269 268 269 270 272 271 273 280 284
236 240 250 249 246 243 244 240 247 255 258 254 253 257 258 258 268 268 265 263 268 277 267 260 261 248 248 246 246 249 253 263 270 274 273 271 271 273 272 268 267 270
252 249 248 249 250 253 252 249 246 249 252 252 248 247 253 254 254 254 254 253 250 252 254 255 257 247 247 249 251 251 250 256 261 266 269 271 270 268 265 269 272 268
246 246 247 248 248 249 250 251 251 251 247 248 250 247 249 252 253 256 258 257 258 258 257 256 255 247 246 250 255 255 254 256 260 260 261 260 266 268 266 266 267 269
242 244 244 244 248 248 248 249 248 249 251 250 250 249 250 253 256 256 256 261 261 260 258 257 253 245 247 251 255 260 262 264 261 260 264 267 264 263 262 262 265 266
244 243 240 243 247 255 261 259 251 250 254 254 253 251 251 252 252 254 255 259 263 263 260 256 253 246 248 250 256 260 268 270 271 269 270 268 265 262 262 261 263 267
245 249 251 251 252 258 267 264 255 251 254 256 256 252 250 250 254 255 256 257 256 256 258 255 252 246 248 253 260 264 269 271 272 273 273 271 268 264 261 260 260 262
255 260 264 264 260 259 256 256 255 258 258 257 257 256 253 252 253 256 256 255 254 254 255 257 255 248 248 255 264 269 274 274 276 276 275 274 271 266 262 259 259 261
265 263 262 265 261 254 256 260 265 264 264 263 267 266 265 263 261 261 260 257 256 257 258 259 259 255 249 252 260 267 272 274 276 277 276 275 274 270 265 261 258 256
245 247 246 251 260 260 256 256 265 269 273 276 272 265 267 265 263 261 260 258 258 259 259 259 259 257 255 254 256 257 264 273 274 276 276 276 276 275 272 267 262 259